Starlink 35860

operational
NORAD ID: 66881 Int'l Des: 2025-283 Owner: SPXS Country: US Constellation: starlink
LEOCIRCULAR

Über Starlink 35860

Beschreibung wird geladen...

Live-Position

3D-Globus wird geladen...

Nächste Überflüge

Höhenverlauf

Altitude vs Time

uPlot chart will show altitude changes over time

Zweizeiliger Elementsatz

1 66881U 25283D 25347.58336806 -.01254986 46404-3 -36206-2 0 9996
2 66881 53.1553 69.6852 0001190 59.1633 300.6377 15.92410685 2567
Epoch: 13. Dez. 2025 • Age: 19 hours

Aktueller Status

Höhe 306.6 km
Geschwindigkeit 7.72 km/s
Subsatellitenpunkt -18.76°S, 42.95°E
Startdatum 4. Dez. 2025
Alter 9 days
Typ internet

Technische Details

Klassifizierung Payload
Masse 575.00 kg
Trockenmasse 530.00 kg
Gesamtmasse 575.00 kg
Länge 0.30 m
Durchmesser 4.10 m
Spannweite 29.00 m
Form Box + pan
Hersteller SPXS
Bus-Typ Starlink V2MO
Phasenstatus In Orbit
Besitzer/Staat SPXS/US

Große Konstellationen

Loading constellations...